contact:dominique.lefevre@mio.osupytheas.fr, maurice.libes@osupytheas.fr, didier.mallarino@osupytheas.fr
Project:EMSO http://www.emso-fr.org/EMSO-France
Depth: 2436.0 m
Title:EMSO Ligure Ouest : Data MII capteur CSTAR
DateTime,Latitude,Longitude,Instrument_Serial,Reference_Counts,Signal_Counts,Corrected_Signal_raw_counts,Calculated_Beam_c_inverse_meters,Internal_thermistor_counts
DateTime,Latitude,Longitude,Instrument_Serial,Reference_Counts,Signal_Counts,Corrected_Signal_raw_counts,Calculated_Beam_c_inverse_meters,Internal_thermistor_counts
2020-02-23T00:00:18,42.805,6.029,CST-1368DR,6734,9440,15229,0.100,551
2020-02-23T00:03:20,42.805,6.029,CST-1368DR,6734,9439,15228,0.101,551
2020-02-23T00:06:21,42.805,6.029,CST-1368DR,6734,9440,15229,0.100,551
2020-02-23T00:09:23,42.805,6.029,CST-1368DR,6734,9440,15229,0.100,551
2020-02-23T00:12:24,42.805,6.029,CST-1368DR,6734,9440,15229,0.100,551
2020-02-23T00:15:26,42.805,6.029,CST-1368DR,6734,9440,15229,0.100,551
2020-02-23T00:18:28,42.805,6.029,CST-1368DR,6734,9439,15228,0.101,551
2020-02-23T00:21:29,42.805,6.029,CST-1368DR,6734,9440,15230,0.100,551
2020-02-23T00:24:31,42.805,6.029,CST-1368DR,6734,9440,15229,0.100,550
2020-02-23T00:27:33,42.805,6.029,CST-1368DR,6734,9438,15227,0.101,551
2020-02-23T00:30:34,42.805,6.029,CST-1368DR,6734,9440,15229,0.100,551
2020-02-23T00:33:36,42.805,6.029,CST-1368DR,6734,9439,15228,0.101,551
2020-02-23T00:36:37,42.805,6.029,CST-1368DR,6734,9438,15226,0.101,551
2020-02-23T00:39:39,42.805,6.029,CST-1368DR,6734,9440,15229,0.100,551
2020-02-23T00:42:41,42.805,6.029,CST-1368DR,6734,9439,15227,0.101,551
2020-02-23T00:45:42,42.805,6.029,CST-1368DR,6734,9439,15227,0.101,551
2020-02-23T00:48:44,42.805,6.029,CST-1368DR,6734,9439,15228,0.101,551
2020-02-23T00:51:46,42.805,6.029,CST-1368DR,6734,9437,15225,0.101,551
2020-02-23T00:54:47,42.805,6.029,CST-1368DR,6734,9437,15225,0.101,551
2020-02-23T00:57:49,42.805,6.029,CST-1368DR,6734,9438,15226,0.101,551
2020-02-23T01:00:51,42.805,6.029,CST-1368DR,6734,9439,15227,0.101,551
2020-02-23T01:03:52,42.805,6.029,CST-1368DR,6734,9438,15226,0.101,551
2020-02-23T01:06:54,42.805,6.029,CST-1368DR,6734,9439,15227,0.101,551
2020-02-23T01:09:56,42.805,6.029,CST-1368DR,6734,9438,15226,0.101,550
2020-02-23T01:12:57,42.805,6.029,CST-1368DR,6734,9438,15226,0.101,551
2020-02-23T01:15:59,42.805,6.029,CST-1368DR,6734,9438,15226,0.101,551
2020-02-23T01:19:00,42.805,6.029,CST-1368DR,6734,9438,15226,0.101,551
2020-02-23T01:22:02,42.805,6.029,CST-1368DR,6734,9439,15227,0.101,551
2020-02-23T01:25:04,42.805,6.029,CST-1368DR,6733,9437,15226,0.101,551
2020-02-23T01:28:05,42.805,6.029,CST-1368DR,6734,9438,15225,0.101,551
2020-02-23T01:31:07,42.805,6.029,CST-1368DR,6734,9439,15227,0.101,550
2020-02-23T01:34:09,42.805,6.029,CST-1368DR,6734,9440,15229,0.100,551
2020-02-23T01:37:10,42.805,6.029,CST-1368DR,6733,9438,15228,0.101,551
2020-02-23T01:40:12,42.805,6.029,CST-1368DR,6734,9439,15227,0.101,551
2020-02-23T01:43:14,42.805,6.029,CST-1368DR,6734,9437,15225,0.101,551
2020-02-23T01:46:15,42.805,6.029,CST-1368DR,6733,9439,15230,0.100,551
2020-02-23T01:49:17,42.805,6.029,CST-1368DR,6734,9439,15228,0.101,551
2020-02-23T01:52:19,42.805,6.029,CST-1368DR,6733,9439,15229,0.100,551
2020-02-23T01:55:20,42.805,6.029,CST-1368DR,6733,9438,15229,0.100,551
2020-02-23T01:58:22,42.805,6.029,CST-1368DR,6734,9438,15227,0.101,551
2020-02-23T02:01:24,42.805,6.029,CST-1368DR,6733,9438,15228,0.101,551
2020-02-23T02:04:25,42.805,6.029,CST-1368DR,6733,9438,15228,0.101,551
2020-02-23T02:07:27,42.805,6.029,CST-1368DR,6734,9439,15227,0.101,551
2020-02-23T02:10:29,42.805,6.029,CST-1368DR,6733,9438,15228,0.101,551
2020-02-23T02:13:30,42.805,6.029,CST-1368DR,6733,9436,15225,0.101,551
2020-02-23T02:16:32,42.805,6.029,CST-1368DR,6733,9438,15229,0.100,551
2020-02-23T02:19:34,42.805,6.029,CST-1368DR,6733,9437,15227,0.101,550
2020-02-23T02:22:36,42.805,6.029,CST-1368DR,6733,9438,15227,0.101,551
2020-02-23T02:25:37,42.805,6.029,CST-1368DR,6733,9438,15228,0.101,551
2020-02-23T02:28:39,42.805,6.029,CST-1368DR,6733,9438,15228,0.101,551
2020-02-23T02:31:40,42.805,6.029,CST-1368DR,6733,9438,15229,0.100,551
2020-02-23T02:34:42,42.805,6.029,CST-1368DR,6733,9438,15228,0.101,551
2020-02-23T02:37:44,42.805,6.029,CST-1368DR,6733,9439,15229,0.100,551
2020-02-23T02:40:45,42.805,6.029,CST-1368DR,6733,9438,15229,0.100,551
2020-02-23T02:43:47,42.805,6.029,CST-1368DR,6733,9438,15229,0.100,551
2020-02-23T02:46:49,42.805,6.029,CST-1368DR,6733,9435,15223,0.102,550
2020-02-23T02:49:50,42.805,6.029,CST-1368DR,6733,9437,15227,0.101,551
2020-02-23T02:52:52,42.805,6.029,CST-1368DR,6733,9437,15226,0.101,551
2020-02-23T02:55:54,42.805,6.029,CST-1368DR,6733,9438,15227,0.101,551
2020-02-23T02:58:55,42.805,6.029,CST-1368DR,6733,9437,15227,0.101,551
2020-02-23T03:01:57,42.805,6.029,CST-1368DR,6733,9437,15226,0.101,551
2020-02-23T03:04:58,42.805,6.029,CST-1368DR,6733,9437,15227,0.101,551
2020-02-23T03:08:00,42.805,6.029,CST-1368DR,6733,9437,15226,0.101,551
2020-02-23T03:11:02,42.805,6.029,CST-1368DR,6733,9437,15226,0.101,550
2020-02-23T03:14:03,42.805,6.029,CST-1368DR,6733,9437,15227,0.101,551
2020-02-23T03:17:05,42.805,6.029,CST-1368DR,6733,9437,15227,0.101,551
2020-02-23T03:20:07,42.805,6.029,CST-1368DR,6733,9437,15226,0.101,551
2020-02-23T03:23:08,42.805,6.029,CST-1368DR,6733,9437,15227,0.101,551
2020-02-23T03:26:10,42.805,6.029,CST-1368DR,6733,9437,15226,0.101,551
2020-02-23T03:29:11,42.805,6.029,CST-1368DR,6733,9436,15224,0.102,551
2020-02-23T03:32:13,42.805,6.029,CST-1368DR,6733,9437,15227,0.101,551
2020-02-23T03:35:15,42.805,6.029,CST-1368DR,6733,9434,15221,0.102,551
2020-02-23T03:38:16,42.805,6.029,CST-1368DR,6733,9437,15227,0.101,551
2020-02-23T03:41:18,42.805,6.029,CST-1368DR,6733,9436,15225,0.101,551
2020-02-23T03:44:19,42.805,6.029,CST-1368DR,6733,9437,15226,0.101,551
2020-02-23T03:47:21,42.805,6.029,CST-1368DR,6733,9437,15226,0.101,550
2020-02-23T03:50:23,42.805,6.029,CST-1368DR,6733,9434,15221,0.102,551
2020-02-23T03:53:24,42.805,6.029,CST-1368DR,6733,9436,15225,0.101,551
2020-02-23T03:56:26,42.805,6.029,CST-1368DR,6733,9435,15223,0.102,551
2020-02-23T03:59:28,42.805,6.029,CST-1368DR,6733,9436,15224,0.102,551
2020-02-23T04:02:29,42.805,6.029,CST-1368DR,6733,9437,15227,0.101,551
2020-02-23T04:05:31,42.805,6.029,CST-1368DR,6733,9435,15223,0.102,551
2020-02-23T04:08:33,42.805,6.029,CST-1368DR,6733,9437,15226,0.101,551
2020-02-23T04:11:34,42.805,6.029,CST-1368DR,6733,9436,15225,0.101,551
2020-02-23T04:14:36,42.805,6.029,CST-1368DR,6733,9435,15224,0.102,551
2020-02-23T04:17:38,42.805,6.029,CST-1368DR,6733,9436,15225,0.101,551
2020-02-23T04:20:39,42.805,6.029,CST-1368DR,6733,9436,15224,0.102,550
2020-02-23T04:23:41,42.805,6.029,CST-1368DR,6733,9434,15222,0.102,551
2020-02-23T04:26:43,42.805,6.029,CST-1368DR,6733,9436,15225,0.101,550
2020-02-23T04:29:44,42.805,6.029,CST-1368DR,6733,9437,15226,0.101,551
2020-02-23T04:32:47,42.805,6.029,CST-1368DR,6733,9434,15222,0.102,551
2020-02-23T04:35:48,42.805,6.029,CST-1368DR,6733,9436,15225,0.101,551
2020-02-23T04:38:50,42.805,6.029,CST-1368DR,6733,9437,15226,0.101,551
2020-02-23T04:41:52,42.805,6.029,CST-1368DR,6733,9437,15226,0.101,551
2020-02-23T04:44:53,42.805,6.029,CST-1368DR,6733,9435,15223,0.102,551
2020-02-23T04:47:55,42.805,6.029,CST-1368DR,6733,9436,15225,0.101,551
2020-02-23T04:50:57,42.805,6.029,CST-1368DR,6733,9436,15224,0.102,551
2020-02-23T04:53:58,42.805,6.029,CST-1368DR,6733,9435,15224,0.102,551
2020-02-23T04:57:00,42.805,6.029,CST-1368DR,6733,9436,15224,0.102,551
2020-02-23T05:00:02,42.805,6.029,CST-1368DR,6733,9436,15225,0.101,551
2020-02-23T05:03:03,42.805,6.029,CST-1368DR,6733,9434,15222,0.102,551
2020-02-23T05:06:05,42.805,6.029,CST-1368DR,6733,9434,15222,0.102,551
2020-02-23T05:09:06,42.805,6.029,CST-1368DR,6733,9434,15221,0.102,551
2020-02-23T05:12:08,42.805,6.029,CST-1368DR,6733,9433,15221,0.102,551
2020-02-23T05:15:10,42.805,6.029,CST-1368DR,6733,9435,15223,0.102,551
2020-02-23T05:18:11,42.805,6.029,CST-1368DR,6733,9434,15222,0.102,551
2020-02-23T05:21:13,42.805,6.029,CST-1368DR,6733,9436,15225,0.101,551
2020-02-23T05:24:15,42.805,6.029,CST-1368DR,6733,9435,15223,0.102,551
2020-02-23T05:27:16,42.805,6.029,CST-1368DR,6733,9436,15225,0.101,551
2020-02-23T05:30:18,42.805,6.029,CST-1368DR,6733,9434,15222,0.102,551
2020-02-23T05:33:20,42.805,6.029,CST-1368DR,6733,9432,15219,0.103,551
2020-02-23T05:36:21,42.805,6.029,CST-1368DR,6733,9435,15224,0.102,551
2020-02-23T05:39:23,42.805,6.029,CST-1368DR,6733,9436,15224,0.102,551
2020-02-23T05:42:25,42.805,6.029,CST-1368DR,6733,9435,15223,0.102,551
2020-02-23T05:45:26,42.805,6.029,CST-1368DR,6733,9434,15221,0.102,551
2020-02-23T05:48:28,42.805,6.029,CST-1368DR,6733,9434,15221,0.102,551
2020-02-23T05:51:30,42.805,6.029,CST-1368DR,6733,9431,15217,0.104,551
2020-02-23T05:54:31,42.805,6.029,CST-1368DR,6733,9434,15221,0.102,550
2020-02-23T05:57:33,42.805,6.029,CST-1368DR,6733,9435,15224,0.102,551
2020-02-23T06:00:34,42.805,6.029,CST-1368DR,6733,9435,15223,0.102,551
2020-02-23T06:03:36,42.805,6.029,CST-1368DR,6733,9436,15224,0.102,551
2020-02-23T06:06:38,42.805,6.029,CST-1368DR,6733,9436,15224,0.102,551
2020-02-23T06:09:39,42.805,6.029,CST-1368DR,6732,9433,15222,0.102,551
2020-02-23T06:12:41,42.805,6.029,CST-1368DR,6733,9435,15224,0.102,551
2020-02-23T06:15:43,42.805,6.029,CST-1368DR,6733,9435,15223,0.102,551
2020-02-23T06:18:44,42.805,6.029,CST-1368DR,6733,9435,15223,0.102,551
2020-02-23T06:21:46,42.805,6.029,CST-1368DR,6732,9434,15224,0.102,551
2020-02-23T06:24:48,42.805,6.029,CST-1368DR,6732,9435,15225,0.101,551
2020-02-23T06:27:49,42.805,6.029,CST-1368DR,6732,9436,15226,0.101,551
2020-02-23T06:30:51,42.805,6.029,CST-1368DR,6733,9435,15223,0.102,551
2020-02-23T06:33:53,42.805,6.029,CST-1368DR,6733,9433,15220,0.103,551
2020-02-23T06:36:54,42.805,6.029,CST-1368DR,6733,9435,15223,0.102,551
2020-02-23T06:39:56,42.805,6.029,CST-1368DR,6732,9435,15226,0.101,551
2020-02-23T06:42:58,42.805,6.029,CST-1368DR,6733,9435,15223,0.102,551
2020-02-23T06:45:59,42.805,6.029,CST-1368DR,6733,9433,15221,0.102,551
2020-02-23T06:49:01,42.805,6.029,CST-1368DR,6733,9435,15223,0.102,551
2020-02-23T06:52:02,42.805,6.029,CST-1368DR,6732,9436,15226,0.101,551
2020-02-23T06:55:04,42.805,6.029,CST-1368DR,6732,9435,15225,0.101,551
2020-02-23T06:58:06,42.805,6.029,CST-1368DR,6732,9436,15227,0.101,551
2020-02-23T07:01:08,42.805,6.029,CST-1368DR,6732,9434,15224,0.102,551
2020-02-23T07:04:10,42.805,6.029,CST-1368DR,6732,9435,15226,0.101,551
2020-02-23T07:07:11,42.805,6.029,CST-1368DR,6732,9436,15226,0.101,551
2020-02-23T07:10:13,42.805,6.029,CST-1368DR,6732,9435,15225,0.101,551
2020-02-23T07:13:15,42.805,6.029,CST-1368DR,6732,9433,15223,0.102,551
2020-02-23T07:16:16,42.805,6.029,CST-1368DR,6732,9436,15226,0.101,551
2020-02-23T07:19:18,42.805,6.029,CST-1368DR,6732,9435,15226,0.101,551
2020-02-23T07:22:20,42.805,6.029,CST-1368DR,6732,9436,15226,0.101,551
2020-02-23T07:25:21,42.805,6.029,CST-1368DR,6732,9435,15225,0.101,551
2020-02-23T07:28:23,42.805,6.029,CST-1368DR,6732,9435,15225,0.101,550
2020-02-23T07:31:25,42.805,6.029,CST-1368DR,6732,9436,15226,0.101,551
2020-02-23T07:34:26,42.805,6.029,CST-1368DR,6732,9434,15224,0.102,551
2020-02-23T07:37:28,42.805,6.029,CST-1368DR,6732,9436,15226,0.101,551
2020-02-23T07:40:30,42.805,6.029,CST-1368DR,6732,9435,15226,0.101,551
2020-02-23T07:43:31,42.805,6.029,CST-1368DR,6732,9435,15226,0.101,551
2020-02-23T07:46:33,42.805,6.029,CST-1368DR,6732,9432,15220,0.103,551
2020-02-23T07:49:35,42.805,6.029,CST-1368DR,6732,9435,15225,0.101,551
2020-02-23T07:52:36,42.805,6.029,CST-1368DR,6732,9434,15224,0.102,551
2020-02-23T07:55:38,42.805,6.029,CST-1368DR,6732,9430,15218,0.103,551
2020-02-23T07:58:40,42.805,6.029,CST-1368DR,6732,9435,15226,0.101,551
2020-02-23T08:01:41,42.805,6.029,CST-1368DR,6732,9435,15225,0.101,551
2020-02-23T08:04:43,42.805,6.029,CST-1368DR,6732,9433,15222,0.102,551
2020-02-23T08:07:44,42.805,6.029,CST-1368DR,6732,9435,15226,0.101,551
2020-02-23T08:10:46,42.805,6.029,CST-1368DR,6732,9435,15226,0.101,551
2020-02-23T08:13:48,42.805,6.029,CST-1368DR,6732,9435,15226,0.101,551
2020-02-23T08:16:49,42.805,6.029,CST-1368DR,6732,9435,15226,0.101,550
2020-02-23T08:19:51,42.805,6.029,CST-1368DR,6732,9435,15225,0.101,551
2020-02-23T08:22:53,42.805,6.029,CST-1368DR,6732,9434,15224,0.102,551
2020-02-23T08:25:54,42.805,6.029,CST-1368DR,6732,9435,15225,0.101,551
2020-02-23T08:28:56,42.805,6.029,CST-1368DR,6732,9435,15226,0.101,551
2020-02-23T08:31:57,42.805,6.029,CST-1368DR,6732,9435,15226,0.101,551
2020-02-23T08:34:59,42.805,6.029,CST-1368DR,6732,9434,15224,0.102,551
2020-02-23T08:38:01,42.805,6.029,CST-1368DR,6732,9435,15225,0.101,551
2020-02-23T08:41:02,42.805,6.029,CST-1368DR,6732,9434,15224,0.102,551
2020-02-23T08:44:04,42.805,6.029,CST-1368DR,6732,9435,15225,0.101,551
2020-02-23T08:47:06,42.805,6.029,CST-1368DR,6732,9435,15225,0.101,551
2020-02-23T08:50:07,42.805,6.029,CST-1368DR,6732,9435,15225,0.101,551
2020-02-23T08:53:09,42.805,6.029,CST-1368DR,6732,9434,15224,0.102,551
2020-02-23T08:56:10,42.805,6.029,CST-1368DR,6732,9432,15220,0.103,551
2020-02-23T08:59:12,42.805,6.029,CST-1368DR,6732,9435,15225,0.101,551
2020-02-23T09:02:14,42.805,6.029,CST-1368DR,6732,9435,15225,0.101,551
2020-02-23T09:05:15,42.805,6.029,CST-1368DR,6732,9434,15224,0.102,551
2020-02-23T09:08:17,42.805,6.029,CST-1368DR,6732,9433,15223,0.102,551
2020-02-23T09:11:19,42.805,6.029,CST-1368DR,6732,9433,15223,0.102,551
2020-02-23T09:14:20,42.805,6.029,CST-1368DR,6732,9434,15224,0.102,551
2020-02-23T09:17:22,42.805,6.029,CST-1368DR,6732,9434,15224,0.102,551
2020-02-23T09:20:23,42.805,6.029,CST-1368DR,6732,9434,15224,0.102,551
2020-02-23T09:23:25,42.805,6.029,CST-1368DR,6732,9430,15217,0.104,551
2020-02-23T09:26:27,42.805,6.029,CST-1368DR,6732,9435,15225,0.101,551
2020-02-23T09:29:28,42.805,6.029,CST-1368DR,6732,9435,15225,0.101,551
2020-02-23T09:32:30,42.805,6.029,CST-1368DR,6732,9435,15226,0.101,551
2020-02-23T09:35:32,42.805,6.029,CST-1368DR,6732,9435,15225,0.101,551
2020-02-23T09:38:33,42.805,6.029,CST-1368DR,6732,9434,15224,0.102,551
2020-02-23T09:41:35,42.805,6.029,CST-1368DR,6732,9434,15224,0.102,551
2020-02-23T09:44:36,42.805,6.029,CST-1368DR,6732,9435,15225,0.101,551
2020-02-23T09:47:38,42.805,6.029,CST-1368DR,6732,9435,15225,0.101,551
2020-02-23T09:50:40,42.805,6.029,CST-1368DR,6732,9434,15223,0.102,551
2020-02-23T09:53:42,42.805,6.029,CST-1368DR,6732,9434,15224,0.102,551
2020-02-23T09:56:44,42.805,6.029,CST-1368DR,6732,9434,15224,0.102,551
2020-02-23T09:59:46,42.805,6.029,CST-1368DR,6732,9434,15224,0.102,551
2020-02-23T10:02:47,42.805,6.029,CST-1368DR,6732,9435,15225,0.101,551
2020-02-23T10:05:49,42.805,6.029,CST-1368DR,6732,9434,15223,0.102,551
2020-02-23T10:08:50,42.805,6.029,CST-1368DR,6732,9434,15224,0.102,551
2020-02-23T10:11:52,42.805,6.029,CST-1368DR,6732,9433,15222,0.102,551
2020-02-23T10:14:54,42.805,6.029,CST-1368DR,6732,9434,15224,0.102,550
2020-02-23T10:17:55,42.805,6.029,CST-1368DR,6732,9434,15224,0.102,551
2020-02-23T10:20:57,42.805,6.029,CST-1368DR,6732,9434,15224,0.102,551
2020-02-23T10:23:59,42.805,6.029,CST-1368DR,6732,9434,15223,0.102,551
2020-02-23T10:27:00,42.805,6.029,CST-1368DR,6732,9434,15224,0.102,551
2020-02-23T10:30:02,42.805,6.029,CST-1368DR,6732,9435,15225,0.101,551
2020-02-23T10:33:03,42.805,6.029,CST-1368DR,6732,9433,15222,0.102,551
2020-02-23T10:36:05,42.805,6.029,CST-1368DR,6732,9434,15224,0.102,551
2020-02-23T10:39:07,42.805,6.029,CST-1368DR,6732,9435,15225,0.101,551
2020-02-23T10:42:08,42.805,6.029,CST-1368DR,6732,9435,15225,0.101,551
2020-02-23T10:45:10,42.805,6.029,CST-1368DR,6732,9435,15226,0.101,551
2020-02-23T10:48:12,42.805,6.029,CST-1368DR,6732,9433,15223,0.102,551
2020-02-23T10:51:13,42.805,6.029,CST-1368DR,6732,9434,15224,0.102,551
2020-02-23T10:54:15,42.805,6.029,CST-1368DR,6732,9434,15224,0.102,551
2020-02-23T10:57:16,42.805,6.029,CST-1368DR,6732,9434,15223,0.102,551
2020-02-23T11:00:18,42.805,6.029,CST-1368DR,6732,9434,15224,0.102,551
2020-02-23T11:03:20,42.805,6.029,CST-1368DR,6732,9434,15224,0.102,551
2020-02-23T11:06:22,42.805,6.029,CST-1368DR,6732,9434,15224,0.102,551
2020-02-23T11:09:23,42.805,6.029,CST-1368DR,6732,9435,15226,0.101,551
2020-02-23T11:12:25,42.805,6.029,CST-1368DR,6732,9433,15223,0.102,551
2020-02-23T11:15:26,42.805,6.029,CST-1368DR,6732,9434,15224,0.102,551
2020-02-23T11:18:28,42.805,6.029,CST-1368DR,6732,9434,15224,0.102,551
2020-02-23T11:21:30,42.805,6.029,CST-1368DR,6732,9433,15222,0.102,551
2020-02-23T11:24:31,42.805,6.029,CST-1368DR,6732,9435,15226,0.101,551
2020-02-23T11:27:33,42.805,6.029,CST-1368DR,6732,9433,15223,0.102,551
2020-02-23T11:30:35,42.805,6.029,CST-1368DR,6732,9435,15226,0.101,551
2020-02-23T11:33:36,42.805,6.029,CST-1368DR,6732,9435,15226,0.101,551
2020-02-23T11:36:38,42.805,6.029,CST-1368DR,6732,9435,15226,0.101,551
2020-02-23T11:39:40,42.805,6.029,CST-1368DR,6732,9435,15226,0.101,550
2020-02-23T11:42:41,42.805,6.029,CST-1368DR,6732,9435,15226,0.101,551
2020-02-23T11:45:43,42.805,6.029,CST-1368DR,6731,9435,15227,0.101,551
2020-02-23T11:48:45,42.805,6.029,CST-1368DR,6731,9429,15217,0.104,550
2020-02-23T11:51:46,42.805,6.029,CST-1368DR,6731,9431,15221,0.102,551
2020-02-23T11:54:48,42.805,6.029,CST-1368DR,6731,9435,15228,0.101,551
2020-02-23T11:57:49,42.805,6.029,CST-1368DR,6731,9434,15226,0.101,550
2020-02-23T12:00:51,42.805,6.029,CST-1368DR,6731,9429,15218,0.103,551
2020-02-23T12:03:53,42.805,6.029,CST-1368DR,6731,9432,15223,0.102,551
2020-02-23T12:06:54,42.805,6.029,CST-1368DR,6731,9434,15226,0.101,551
2020-02-23T12:09:56,42.805,6.029,CST-1368DR,6731,9435,15227,0.101,551
2020-02-23T12:12:58,42.805,6.029,CST-1368DR,6731,9435,15227,0.101,551
2020-02-23T12:15:59,42.805,6.029,CST-1368DR,6731,9434,15226,0.101,551
2020-02-23T12:19:01,42.805,6.029,CST-1368DR,6731,9432,15223,0.102,551
2020-02-23T12:22:03,42.805,6.029,CST-1368DR,6731,9434,15226,0.101,551
2020-02-23T12:25:04,42.805,6.029,CST-1368DR,6731,9434,15225,0.101,551
2020-02-23T12:28:06,42.805,6.029,CST-1368DR,6731,9433,15225,0.101,551
2020-02-23T12:31:08,42.805,6.029,CST-1368DR,6731,9433,15224,0.102,551
2020-02-23T12:34:09,42.805,6.029,CST-1368DR,6731,9431,15221,0.102,551
2020-02-23T12:37:11,42.805,6.029,CST-1368DR,6731,9432,15223,0.102,551
2020-02-23T12:40:13,42.805,6.029,CST-1368DR,6731,9432,15223,0.102,551
2020-02-23T12:43:14,42.805,6.029,CST-1368DR,6731,9431,15221,0.102,551
2020-02-23T12:46:16,42.805,6.029,CST-1368DR,6731,9433,15224,0.102,551
2020-02-23T12:49:18,42.805,6.029,CST-1368DR,6731,9431,15221,0.102,551
2020-02-23T12:52:20,42.805,6.029,CST-1368DR,6731,9432,15223,0.102,551
2020-02-23T12:55:21,42.805,6.029,CST-1368DR,6731,9433,15224,0.102,551
2020-02-23T12:58:23,42.805,6.029,CST-1368DR,6731,9433,15224,0.102,551
2020-02-23T13:01:25,42.805,6.029,CST-1368DR,6731,9432,15223,0.102,551
2020-02-23T13:04:26,42.805,6.029,CST-1368DR,6731,9433,15224,0.102,551
2020-02-23T13:07:28,42.805,6.029,CST-1368DR,6731,9433,15224,0.102,551
2020-02-23T13:10:30,42.805,6.029,CST-1368DR,6731,9433,15224,0.102,551
2020-02-23T13:13:31,42.805,6.029,CST-1368DR,6731,9432,15222,0.102,551
2020-02-23T13:16:33,42.805,6.029,CST-1368DR,6731,9432,15223,0.102,551
2020-02-23T13:19:35,42.805,6.029,CST-1368DR,6731,9431,15222,0.102,550
2020-02-23T13:22:36,42.805,6.029,CST-1368DR,6731,9432,15222,0.102,551
2020-02-23T13:25:38,42.805,6.029,CST-1368DR,6731,9432,15222,0.102,551
2020-02-23T13:28:40,42.805,6.029,CST-1368DR,6731,9432,15223,0.102,551
2020-02-23T13:31:41,42.805,6.029,CST-1368DR,6731,9431,15221,0.102,551
2020-02-23T13:34:43,42.805,6.029,CST-1368DR,6731,9431,15221,0.102,551
2020-02-23T13:37:44,42.805,6.029,CST-1368DR,6731,9432,15222,0.102,551
2020-02-23T13:40:46,42.805,6.029,CST-1368DR,6731,9432,15223,0.102,551
2020-02-23T13:43:48,42.805,6.029,CST-1368DR,6731,9431,15221,0.102,551
2020-02-23T13:46:49,42.805,6.029,CST-1368DR,6731,9432,15222,0.102,551
2020-02-23T13:49:51,42.805,6.029,CST-1368DR,6731,9432,15223,0.102,551
2020-02-23T13:52:53,42.805,6.029,CST-1368DR,6731,9433,15224,0.102,551
2020-02-23T13:55:54,42.805,6.029,CST-1368DR,6731,9432,15223,0.102,551
2020-02-23T13:58:56,42.805,6.029,CST-1368DR,6731,9432,15223,0.102,551
2020-02-23T14:01:57,42.805,6.029,CST-1368DR,6731,9432,15223,0.102,550
2020-02-23T14:04:59,42.805,6.029,CST-1368DR,6731,9432,15223,0.102,550
2020-02-23T14:08:01,42.805,6.029,CST-1368DR,6731,9431,15221,0.102,551
2020-02-23T14:11:02,42.805,6.029,CST-1368DR,6731,9432,15222,0.102,550
2020-02-23T14:14:04,42.805,6.029,CST-1368DR,6731,9431,15221,0.102,551
2020-02-23T14:17:06,42.805,6.029,CST-1368DR,6731,9433,15224,0.102,551
2020-02-23T14:20:07,42.805,6.029,CST-1368DR,6731,9430,15220,0.103,551
2020-02-23T14:23:09,42.805,6.029,CST-1368DR,6731,9432,15222,0.102,551
2020-02-23T14:26:11,42.805,6.029,CST-1368DR,6731,9431,15222,0.102,551
2020-02-23T14:29:12,42.805,6.029,CST-1368DR,6731,9431,15221,0.102,551
2020-02-23T14:32:14,42.805,6.029,CST-1368DR,6731,9431,15222,0.102,551
2020-02-23T14:35:15,42.805,6.029,CST-1368DR,6731,9432,15222,0.102,551
2020-02-23T14:38:17,42.805,6.029,CST-1368DR,6731,9432,15223,0.102,551
2020-02-23T14:41:19,42.805,6.029,CST-1368DR,6731,9431,15221,0.102,551
2020-02-23T14:44:20,42.805,6.029,CST-1368DR,6731,9428,15216,0.104,551
2020-02-23T14:47:22,42.805,6.029,CST-1368DR,6731,9431,15222,0.102,551
2020-02-23T14:50:24,42.805,6.029,CST-1368DR,6731,9431,15220,0.103,551
2020-02-23T14:53:25,42.805,6.029,CST-1368DR,6731,9430,15220,0.103,551
2020-02-23T14:56:27,42.805,6.029,CST-1368DR,6731,9430,15220,0.103,551
2020-02-23T14:59:28,42.805,6.029,CST-1368DR,6731,9429,15218,0.103,551
2020-02-23T15:02:30,42.805,6.029,CST-1368DR,6731,9429,15217,0.104,551
2020-02-23T15:05:32,42.805,6.029,CST-1368DR,6731,9430,15220,0.103,551
2020-02-23T15:08:33,42.805,6.029,CST-1368DR,6731,9428,15216,0.104,551
2020-02-23T15:11:35,42.805,6.029,CST-1368DR,6731,9428,15216,0.104,551
2020-02-23T15:14:37,42.805,6.029,CST-1368DR,6730,9429,15220,0.103,551
2020-02-23T15:17:38,42.805,6.029,CST-1368DR,6731,9428,15217,0.104,551
2020-02-23T15:20:40,42.805,6.029,CST-1368DR,6730,9428,15218,0.103,551
2020-02-23T15:23:42,42.805,6.029,CST-1368DR,6730,9429,15221,0.102,550
2020-02-23T15:26:43,42.805,6.029,CST-1368DR,6730,9423,15211,0.105,551
2020-02-23T15:29:45,42.805,6.029,CST-1368DR,6731,9428,15216,0.104,551
2020-02-23T15:32:47,42.805,6.029,CST-1368DR,6731,9429,15218,0.103,551
2020-02-23T15:35:48,42.805,6.029,CST-1368DR,6730,9428,15218,0.103,550
2020-02-23T15:38:50,42.805,6.029,CST-1368DR,6730,9428,15219,0.103,551
2020-02-23T15:41:52,42.805,6.029,CST-1368DR,6731,9427,15215,0.104,551
2020-02-23T15:44:53,42.805,6.029,CST-1368DR,6730,9428,15218,0.103,550
2020-02-23T15:47:55,42.805,6.029,CST-1368DR,6730,9429,15221,0.102,551
2020-02-23T15:50:56,42.805,6.029,CST-1368DR,6730,9428,15218,0.103,551
2020-02-23T15:53:58,42.805,6.029,CST-1368DR,6730,9426,15214,0.104,551
2020-02-23T15:57:00,42.805,6.029,CST-1368DR,6731,9427,15214,0.104,551
2020-02-23T16:00:01,42.805,6.029,CST-1368DR,6730,9428,15219,0.103,551
2020-02-23T16:03:03,42.805,6.029,CST-1368DR,6731,9428,15216,0.104,551
2020-02-23T16:06:05,42.805,6.029,CST-1368DR,6730,9429,15219,0.103,551
2020-02-23T16:09:06,42.805,6.029,CST-1368DR,6730,9428,15219,0.103,551
2020-02-23T16:12:08,42.805,6.029,CST-1368DR,6730,9425,15213,0.105,551
2020-02-23T16:15:10,42.805,6.029,CST-1368DR,6730,9430,15221,0.102,551
2020-02-23T16:18:11,42.805,6.029,CST-1368DR,6730,9427,15217,0.104,551
2020-02-23T16:21:13,42.805,6.029,CST-1368DR,6730,9427,15217,0.104,551
2020-02-23T16:24:14,42.805,6.029,CST-1368DR,6730,9429,15220,0.103,551
2020-02-23T16:27:16,42.805,6.029,CST-1368DR,6730,9430,15221,0.102,551
2020-02-23T16:30:18,42.805,6.029,CST-1368DR,6730,9428,15219,0.103,551
2020-02-23T16:33:19,42.805,6.029,CST-1368DR,6730,9427,15217,0.104,551
2020-02-23T16:36:21,42.805,6.029,CST-1368DR,6730,9427,15217,0.104,551
2020-02-23T16:39:23,42.805,6.029,CST-1368DR,6730,9426,15216,0.104,551
2020-02-23T16:42:24,42.805,6.029,CST-1368DR,6730,9429,15219,0.103,551
2020-02-23T16:45:26,42.805,6.029,CST-1368DR,6730,9425,15214,0.104,551
2020-02-23T16:48:27,42.805,6.029,CST-1368DR,6730,9425,15214,0.104,551
2020-02-23T16:51:29,42.805,6.029,CST-1368DR,6730,9425,15214,0.104,551